This is the latest recevied weather packets stored in our database for station/object SV9TNF-52. If no packets are shown the sender has not sent any weather packets the latest 10 day(s).
| Time | Temp. | Humidity | Pressure | Rain* | Wind** | Luminosity | Snow |
|---|---|---|---|---|---|---|---|
| 1788115947 | 23.89° C | 65% | 1021 hPa | 0 mm | 3.58 m/s, 159° | - | - |
| 1788115647 | 24.44° C | 65% | 1021 hPa | 0 mm | 4.92 m/s, 208° | - | - |
| 1788115346 | 24.44° C | 65% | 1021 hPa | 0 mm | 4.02 m/s, 180° | - | - |
| 1788115046 | 25° C | 65% | 1021 hPa | 0 mm | 1.79 m/s, 227° | - | - |
| 1788114747 | 25.56° C | 64% | 1020.7 hPa | 0 mm | 0.45 m/s, 62° | - | - |
| 1788114446 | 26.11° C | 65% | 1020.7 hPa | 0 mm | 0.45 m/s, 219° | - | - |
| 1788114146 | 26.67° C | 65% | 1020.7 hPa | 0 mm | 1.34 m/s, 317° | - | - |
| 1788113846 | 26.67° C | 65% | 1020.7 hPa | 0 mm | 2.68 m/s, 289° | - | - |
| 1788113546 | 26.67° C | 65% | 1020.7 hPa | 0 mm | 4.92 m/s, 320° | - | - |
| 1788113246 | 26.67° C | 64% | 1020.7 hPa | 0 mm | 0 m/s | - | - |
| 1788112946 | 26.67° C | 63% | 1020.7 hPa | 0 mm | 4.02 m/s, 280° | - | - |
| 1788112646 | 26.67° C | 63% | 1020.7 hPa | 0 mm | 0.45 m/s, 359° | - | - |
| 1788112346 | 26.67° C | 63% | 1020.7 hPa | 0 mm | 4.47 m/s, 329° | - | - |
| 1788112046 | 26.67° C | 63% | 1020.7 hPa | 0 mm | 2.24 m/s, 200° | - | - |
| 1788111746 | 26.11° C | 63% | 1020.7 hPa | 0 mm | 0 m/s | - | - |
| 1788111445 | 26.11° C | 62% | 1020.7 hPa | 0 mm | 0 m/s | - | - |
| 1788111145 | 26.11° C | 62% | 1020.3 hPa | 0 mm | 0.89 m/s, 239° | - | - |
| 1788110845 | 26.11° C | 62% | 1020.3 hPa | 0 mm | 0 m/s | - | - |
| 1788110545 | 26.67° C | 62% | 1020 hPa | 0 mm | 0 m/s | - | - |
| 1788110245 | 26.67° C | 62% | 1020 hPa | 0 mm | 0 m/s | - | - |
| 1788109945 | 26.67° C | 61% | 1020 hPa | 0 mm | 0 m/s | - | - |
| 1788109645 | 26.67° C | 61% | 1020 hPa | 0 mm | 0 m/s | - | - |
| 1788109345 | 26.67° C | 60% | 1020 hPa | 0 mm | 0 m/s | - | - |
| 1788109044 | 26.67° C | 60% | 1020.3 hPa | 0 mm | 0 m/s | - | - |
| 1788108745 | 27.22° C | 60% | 1020.3 hPa | 0 mm | 0 m/s | - | - |
* Rain latest hour (hover to see other rain measurements)
** Current wind speed in m/s (hover to see current wind gust speed)